CZ-4 DEB, 26127

Orbit data source: Space-Track

CZ-4 DEB, 26127 is space debris in SSO originally from a launch on Thu, 14 Oct 1999 UTC launched from the Taiyaun Space Center, China (TSC). Debris objects in space refer to the collection of defunct objects orbiting the Earth. Examples of debris include non-operational satellites, rocket bodies, and fragments generated from explosions, collisions, or faulty payload assembly.

Loading next visibility...
Identifier
26127, 1999-057P
Orbit
SSO
Country
Flag of CNCN / PRC
Related business
Manufacturer
Unknown
Mission
Spacecraft
Bus & Motor
Unknown
Mass
Unknown
Launch date (UTC)
1999-10-14 (27 years ago)
Launch vehicle
Unknown
Launch site
Taiyaun Space Center, China (TSC)
Object type
Payload
Rocket body
Debris
Shape & HBR
Unknown shape, 0.1 m
Radar Cross Section
Small (<0.1 m²)

Expand to show TLE details & history
Last TLE update: 6 hours ago

TLE from 6 hours ago
0 CZ-4 DEB
1 26127U 99057P   26119.48188630  .00014351  00000-0  13608-2 0  9999
2 26127  98.4467 290.6657 0054300 251.0820 177.7819 14.92565837377459
Epoch: 2026-04-29T11:33Z
TLE epoch observation values (Epoch: 2026-04-29T11:33:54.976Z)
Latitude
67.41843°
Longitude
-121.05765°
Altitude
639.4 km
Speed
7.524 km/s
True Right ascension
17h 59m 27s
True Declination
67° 17' 39"
Sunlit
Object was in daylight at epoch
Visualization orbit readout
Latitude
Unknown
Longitude
Unknown
Altitude
Unknown
Speed
Unknown
Apparent Right ascension
Unknown
Apparent Declination
Unknown
Sunlit
N/A
Visualization observer readout
Local Sidereal Time
00:43:08
Azimuth
Unknown
Elevation
Unknown
Doppler factor
Unknown
Orbital elements
Apogee altitude
624.808 km
Perigee altitude
549.167 km
Semi-major axis
6,965.125 km
Eccentricity
0.00543
Inclination
98.4467°
RAAN
290.6657°
Arg. of periapsis
251.082°
True anomaly
177.80582°
Mean anomaly
177.7819°
Eccentric anomaly
177.79388°
Mean motion
3.73379 °/min
Orbital period
96.42 mins
BSTAR
0.0013608
Loading maneuver chart data...
Computing Atmospheric mass density...
Loading historical data...
Loading historical data...
Loading historical data...
Loading historical data...
Loading historical data...
Loading historical data...
Loading historical data...

Documentation

Showing up to 5 results
|